Hourly Data Report for October 03, 2014

All times are specified in Local Standard Time (LST). Add 1 hour to adjust for Daylight Saving Time where and when it is observed.

CAPE DORSET A
NUNAVUT

64°13'49.000" N
76°31'30.000" W
48.20 m
2400637
71366
YTE

Download Data

Hourly Data (October 2014)
Hourly Data Report for October 3, 2014
Temp Definition
°C
Dew Point Temp Definition
°C
Rel Hum Definition
%
Wind Dir Definition
10's deg

Wind Spd Definition
km/h
Visibility Definition
km
Stn Press Definition
kPa
Hmdx Definition


Wind Chill Definition


Weather Definition


TIME
00:00 Legend Double Dagger -1.1 LegendMM LegendMM 7 34 2.8 99.66   -8 Snow
01:00 Legend Double Dagger -1.3 LegendMM LegendMM 7 37 3.2 99.63   -9 Snow
02:00 Legend Double Dagger -1.9 LegendMM LegendMM 7 35 2.8 99.62   -9 Snow
03:00 Legend Double Dagger -1.6 -2.3 95 7 41 9.7 99.64   -10 Snow
04:00 Legend Double Dagger -1.6 -1.6 100 7 35 3.6 99.66   -9 Snow
05:00 Legend Double Dagger -2.2 -3.0 94 6 34 6.4 99.71   -10 Snow
06:00 Legend Double Dagger -3.1 -3.9 94 5 34 3.6 99.76   -11 Snow
07:00 Legend Double Dagger -2.9 -3.6 95 5 24 4.8 99.82   -10 Snow
08:00 Legend Double Dagger -3.9 -4.9 93 5 32 4.8 99.86   -12 Snow
09:00 Legend Double Dagger -3.9 -5.0 92 5 24 16.1 99.89   -11 LegendNANA
10:00 Legend Double Dagger -4.2 -5.6 90 5 32 16.1 99.91   -12 LegendNANA
11:00 Legend Double Dagger -3.6 -5.0 90 5 34 16.1 99.93   -12 LegendNANA
12:00 Legend Double Dagger -3.8 -5.5 88 5 34 16.1 99.98   -12 LegendNANA
13:00 Legend Double Dagger -4.1 -5.8 88 5 28 16.1 100.02   -12 LegendNANA
14:00 Legend Double Dagger -4.1 -6.0 87 5 26 16.1 100.11   -11 LegendNANA
15:00 Legend Double Dagger -4.4 -6.8 83 5 34 16.1 100.14   -13 LegendNANA
16:00 Legend Double Dagger -4.3 -6.8 83 5 34 16.1 100.22   -13 LegendNANA
17:00 Legend Double Dagger -4.6 -6.7 85 5 26 16.1 100.29   -12 LegendNANA
18:00 Legend Double Dagger -4.8 -6.9 85 4 26 16.1 100.32   -12 Snow
19:00 Legend Double Dagger -5.2 -7.0 87 3 21 14.5 100.41   -12 Snow
20:00 Legend Double Dagger -5.2 -7.3 85 2 24 16.1 100.44   -12 LegendNANA
21:00 Legend Double Dagger -5.2 -7.8 82 3 26 16.1 100.47   -13 LegendNANA
22:00 Legend Double Dagger -5.2 -8.1 80 2 28 16.1 100.45   -13 LegendNANA
23:00 Legend Double Dagger -5.3 -7.9 82 3 22 16.1 100.42   -12 LegendNANA

Notes on Data Quality.

Legend

  • E = Estimated
  • M = Missing
  • NA = Not Available
  • ‡ = Partner data that is not subject to review by the National Climate Archives
Date modified: